Weather reports worldwide

Advertisment
Shawbury, United Kingdom (3414): temperature & dewpoint: 16.04.2018 17:00:00 - 22.04.2018 17:00:00 (BST)Shawbury, United Kingdom (3414): temperature -20cm & temperature -100cm: 16.04.2018 17:00:00 - 22.04.2018 17:00:00 (BST)Shawbury, United Kingdom (3414): wind speed & gusts: 16.04.2018 17:00:00 - 22.04.2018 17:00:00 (BST)Shawbury, United Kingdom (3414): wind direction: 16.04.2018 17:00:00 - 22.04.2018 17:00:00 (BST)Shawbury, United Kingdom (3414): reduced air pressure: 16.04.2018 17:00:00 - 22.04.2018 17:00:00 (BST)Shawbury, United Kingdom (3414): visibility: 16.04.2018 17:00:00 - 22.04.2018 17:00:00 (BST)Shawbury, United Kingdom (3414): sunshine duration: 16.04.2018 17:00:00 - 22.04.2018 17:00:00 (BST)Shawbury, United Kingdom (3414): precipitation: 16.04.2018 17:00:00 - 22.04.2018 17:00:00 (BST)
Date & Time tt [°C] td [°C] tt -20cm [°C] tt -100cm [°C] ff [km/h] ff [kn] fx [km/h] fx [kn] dd ppp [hPa] vv [km] sd [min] rr [mm]
22.04.2018 17:00:00 14,0 8,4 - - 31 17 - - WSW 1008,2 35 6 -
22.04.2018 16:00:00 12,4 9,4 - - 26 14 - - W 1008,4 40 0 0,0
22.04.2018 15:00:00 13,4 9,2 - - 21 11 - - W 1008,4 30 6 0,0
22.04.2018 14:00:00 16,3 7,8 - - 24 13 - - SW 1007,9 45 30 0,0
22.04.2018 13:00:00 15,6 5,4 - - 22 12 - - SW 1007,8 35 36 0,0
22.04.2018 12:00:00 14,5 5,4 - - 26 14 - - SW 1007,8 10 12 0,0
22.04.2018 11:00:00 12,8 10,5 - - 5 3 - - SW 1007,6 5 0 0,2
22.04.2018 10:00:00 12,0 9,2 9,7 9,2 22 12 - - W 1008,4 7 0 0,0
22.04.2018 09:00:00 15,2 10,7 - - 21 11 - - WSW 1007,7 14 0 0,0
22.04.2018 08:00:00 15,0 11,1 - - 22 12 - - S 1007,3 18 36 0,0
22.04.2018 07:00:00 13,8 10,6 - - 13 7 - - S 1007,2 20 0 0,0
22.04.2018 06:00:00 13,6 10,4 - - 13 7 - - S 1007,4 20 0 0,0
22.04.2018 05:00:00 14,6 10,7 - - 16 9 - - S 1008,1 10 0 0,0
22.04.2018 04:00:00 15,3 11,2 - - 18 10 - - S 1008,9 20 0 0,0
22.04.2018 03:00:00 15,9 11,2 - - 18 10 - - S 1009,6 23 0 0,0
22.04.2018 02:00:00 15,8 11,1 - - 16 9 - - SSE 1010,4 10 0 0,0
22.04.2018 01:00:00 16,3 10,9 - - 21 11 - - S 1011,0 10 - 0,0
22.04.2018 00:00:00 17,3 10,9 - - 18 10 - - S 1011,5 18 0 0,0
21.04.2018 23:00:00 17,7 11,2 - - 9 5 - - S 1011,4 19 0 0,0
21.04.2018 22:00:00 18,9 11,6 - - 13 7 - - SSE 1012,1 17 0 0,0
21.04.2018 21:00:00 18,9 13,5 - - 8 4 - - E 1011,9 10 0 0,0
21.04.2018 20:00:00 19,2 14,3 - - 2 1 - - SSE 1012,9 12 0 0,0
21.04.2018 19:00:00 20,1 12,8 - - 18 10 - - SSE 1013,3 14 24 0,0
21.04.2018 18:00:00 20,5 12,5 - - 18 10 - - SSE 1014,2 14 60 0,0
21.04.2018 17:00:00 20,4 12,4 - - 22 12 - - SSE 1015,1 13 54 0,0
21.04.2018 16:00:00 20,3 12,1 - - 24 13 - - SSE 1015,7 14 60 0,0
21.04.2018 15:00:00 20,2 12,0 - - 24 13 - - SSE 1017,1 12 60 0,0
21.04.2018 14:00:00 20,5 11,9 - - 18 10 - - SSE 1017,9 12 60 0,0
21.04.2018 13:00:00 18,8 10,4 - - 13 7 - - SE 1018,8 13 60 0,0
21.04.2018 12:00:00 17,0 9,4 - - 13 7 - - SE 1019,7 13 60 0,0
21.04.2018 11:00:00 14,8 8,2 - - 11 6 - - ESE 1021,0 18 60 0,0
21.04.2018 10:00:00 13,0 7,4 9,2 9,0 11 6 - - E 1021,6 21 60 0,0
21.04.2018 09:00:00 11,3 7,1 - - 4 2 - - ESE 1022,2 18 60 0,0
21.04.2018 08:00:00 8,8 7,0 - - 2 1 - - WNW 1022,7 14 54 0,0
21.04.2018 07:00:00 7,3 6,2 - - 4 2 - - NNE 1022,9 14 0 0,0
21.04.2018 06:00:00 6,4 5,1 - - 4 2 - - WSW 1022,9 14 0 0,0
21.04.2018 05:00:00 8,1 6,4 - - 2 1 - - WNW 1023,4 10 0 0,0
21.04.2018 04:00:00 7,7 5,8 - - 2 1 - - NW 1023,7 20 0 0,0
21.04.2018 03:00:00 9,0 6,9 - - 2 1 - - N 1023,9 22 0 0,0
21.04.2018 02:00:00 9,2 6,6 - - 5 3 - - NW 1024,3 23 0 0,0
21.04.2018 01:00:00 10,3 6,3 - - 5 3 - - NW 1024,7 10 - 0,0
21.04.2018 00:00:00 10,7 5,7 - - 5 3 - - NW 1024,9 30 0 0,0
20.04.2018 23:00:00 10,2 5,4 - - 9 5 - - NNW 1024,8 35 0 0,0
20.04.2018 22:00:00 10,5 5,4 - - 9 5 - - N 1025,1 10 0 0,0
20.04.2018 21:00:00 10,9 6,1 - - 15 8 - - N 1025,1 30 6 0,0
20.04.2018 20:00:00 12,8 6,5 - - 16 9 - - N 1024,6 10 60 0,0
20.04.2018 19:00:00 14,9 6,2 - - 18 10 - - N 1024,2 30 60 0,0
20.04.2018 18:00:00 16,9 7,9 - - 15 8 - - N 1024,0 28 60 0,0
20.04.2018 17:00:00 17,6 8,0 - - 9 5 - - N 1024,1 35 60 0,0
20.04.2018 16:00:00 17,4 6,8 - - 8 4 - - N 1024,4 35 60 0,0
20.04.2018 15:00:00 16,7 7,5 - - 8 4 - - N 1024,7 35 60 0,0
20.04.2018 14:00:00 16,7 7,8 - - 11 6 - - NNW 1025,0 35 54 0,0
20.04.2018 13:00:00 16,4 10,2 - - 13 7 - - NNW 1025,2 10 60 0,0
20.04.2018 12:00:00 15,7 9,7 - - 11 6 - - NNW 1025,3 10 60 0,0
20.04.2018 11:00:00 14,3 8,4 - - 8 4 - - NW 1025,4 10 60 0,0
20.04.2018 10:00:00 12,8 9,2 9,0 8,7 9 5 - - NNW 1025,1 10 60 0,0
20.04.2018 09:00:00 11,4 9,1 - - 8 4 - - NNW 1024,9 20 36 0,0
20.04.2018 08:00:00 10,6 8,8 - - 5 3 - - NW 1024,7 18 0 0,0
20.04.2018 07:00:00 10,3 9,6 - - 5 3 - - NW 1024,4 7 0 0,0
20.04.2018 06:00:00 9,9 9,6 - - 8 4 - - W 1024,0 3,0 0 0,0
20.04.2018 05:00:00 10,1 10,0 - - 8 4 - - WNW 1024,1 3,2 0 0,0
20.04.2018 04:00:00 10,1 9,9 - - 8 4 - - NNW 1024,3 0,5 0 0,0
20.04.2018 03:00:00 9,9 9,7 - - 9 5 - - NW 1024,4 1,2 0 0,0
20.04.2018 02:00:00 9,6 9,2 - - 9 5 - - WNW 1024,6 1,1 0 0,0
20.04.2018 01:00:00 8,9 8,2 - - 8 4 - - WNW 1024,4 7 - 0,0
20.04.2018 00:00:00 10,1 9,1 - - 8 4 - - NW 1024,3 9 0 0,0
19.04.2018 23:00:00 10,8 9,9 - - 9 5 - - NW 1024,3 12 0 0,0
19.04.2018 22:00:00 11,8 10,4 - - 11 6 - - NNW 1024,6 15 0 0,0
19.04.2018 21:00:00 13,1 11,0 - - 18 10 - - NNW 1024,1 10 0 0,0
19.04.2018 20:00:00 15,4 12,1 - - 24 13 - - NNW 1023,2 19 54 0,0
19.04.2018 19:00:00 20,2 14,6 - - 16 9 - - NNW 1022,6 16 60 0,0
19.04.2018 18:00:00 22,5 11,4 - - 11 6 - - NNW 1022,4 10 60 0,0
19.04.2018 17:00:00 23,4 11,1 - - 5 3 - - NW 1022,2 10 60 0,0
19.04.2018 16:00:00 23,1 11,2 - - 8 4 - - SW 1022,6 10 60 0,0
19.04.2018 15:00:00 22,7 11,6 - - 4 2 - - W 1022,9 10 60 0,0
19.04.2018 14:00:00 21,9 10,5 - - 8 4 - - SW 1023,1 10 60 0,0
19.04.2018 13:00:00 20,8 10,2 - - 9 5 - - WSW 1023,3 10 60 0,0
19.04.2018 12:00:00 19,8 10,1 - - 13 7 - - W 1023,3 10 60 0,0
19.04.2018 11:00:00 19,3 9,8 - - 11 6 - - WSW 1023,4 10 60 0,0
19.04.2018 10:00:00 17,4 10,5 8,5 8,5 9 5 - - WSW 1023,1 10 60 0,0
19.04.2018 09:00:00 15,1 10,3 - - 5 3 - - SSE 1023,0 30 60 -
19.04.2018 08:00:00 12,4 9,2 - - 4 2 - - E 1022,9 10 54 -
19.04.2018 07:00:00 8,4 7,0 - - 4 2 - - N 1022,4 20 6 -
19.04.2018 06:00:00 8,5 6,3 - - 2 1 - - SSE 1022,2 25 0 -
19.04.2018 05:00:00 11,8 7,4 - - 9 5 - - ESE 1021,9 10 0 -
19.04.2018 04:00:00 12,3 7,4 - - 11 6 - - E 1022,1 24 0 -
19.04.2018 03:00:00 12,1 7,7 - - 4 2 - - SSE 1022,5 24 0 -
19.04.2018 02:00:00 15,3 7,3 - - 16 9 - - ESE 1022,4 29 0 0,0
19.04.2018 01:00:00 14,1 7,5 - - 9 5 - - ESE 1023,0 29 - 0,0
19.04.2018 00:00:00 15,8 7,7 - - 8 4 - - SE 1023,0 10 0 0,0
18.04.2018 23:00:00 15,9 7,2 - - 9 5 - - SE 1022,9 30 0 0,0
18.04.2018 22:00:00 17,2 7,3 - - 9 5 - - SE 1022,8 35 0 0,0
18.04.2018 21:00:00 18,7 7,2 - - 16 9 - - SE 1022,2 10 0 0,0
18.04.2018 20:00:00 20,0 6,5 - - 21 11 - - SSE 1021,9 35 60 0,0
18.04.2018 19:00:00 21,2 8,7 - - 18 10 - - SSE 1022,0 30 60 0,0
18.04.2018 18:00:00 21,3 10,5 - - 21 11 - - SSE 1022,4 28 60 0,0
18.04.2018 17:00:00 21,5 10,5 - - 28 15 - - SSE 1023,1 10 60 0,0
18.04.2018 16:00:00 21,3 10,5 - - 24 13 - - SSE 1023,7 10 60 0,0
18.04.2018 15:00:00 20,2 11,4 - - 16 9 - - SSE 1024,4 10 54 0,0
18.04.2018 14:00:00 18,6 11,4 - - 16 9 - - SSE 1025,1 10 36 0,0
18.04.2018 13:00:00 16,9 11,4 - - 18 10 - - SSE 1025,7 10 6 0,0
18.04.2018 12:00:00 15,2 11,7 - - 22 12 - - S 1025,8 10 0 0,0
18.04.2018 11:00:00 14,7 11,6 - - 22 12 - - S 1025,5 10 6 0,0
18.04.2018 10:00:00 14,4 11,5 7,9 8,2 28 15 - - S 1024,8 10 6 0,0
18.04.2018 09:00:00 14,3 11,5 - - 24 13 - - S 1024,4 10 12 0,0
18.04.2018 08:00:00 13,9 11,4 - - 28 15 - - S 1023,8 10 6 0,0
18.04.2018 07:00:00 13,6 11,4 - - 24 13 - - S 1022,7 10 0 0,0
18.04.2018 06:00:00 13,2 11,3 - - 24 13 - - SSE 1021,6 10 0 0,0
18.04.2018 05:00:00 13,2 11,3 - - 18 10 - - S 1021,1 10 0 0,0
18.04.2018 04:00:00 13,2 11,2 - - 28 15 - - S 1021,0 10 0 0,0
18.04.2018 03:00:00 12,8 11,0 - - 24 13 - - SSE 1020,6 26 0 0,0
18.04.2018 02:00:00 13,0 11,1 - - 21 11 - - SSE 1020,9 30 0 0,0
18.04.2018 01:00:00 12,9 11,2 - - 21 11 - - SSE 1020,7 24 - 0,0
18.04.2018 00:00:00 12,8 11,4 - - 18 10 - - SSE 1020,2 15 0 0,0
17.04.2018 23:00:00 12,9 11,6 - - 16 9 - - SSE 1019,7 10 0 0,0
17.04.2018 22:00:00 13,5 10,9 - - 21 11 - - S 1019,0 10 0 0,0
17.04.2018 21:00:00 13,5 10,9 - - 22 12 - - S 1017,8 10 0 0,0
17.04.2018 20:00:00 13,9 10,5 - - 24 13 - - S 1017,3 10 0 0,0
17.04.2018 19:00:00 13,8 10,2 - - 24 13 52 28 S 1016,5 35 0 0,0
17.04.2018 18:00:00 13,8 10,2 - - 31 17 48 26 S 1015,8 10 0 0,0
17.04.2018 17:00:00 13,3 11,3 - - 26 14 - - S 1015,5 10 0 0,0
17.04.2018 16:00:00 12,8 11,3 - - 22 12 - - S 1015,0 10 0 0,2
17.04.2018 15:00:00 12,8 10,6 - - 24 13 - - S 1014,6 8 0 0,0
17.04.2018 14:00:00 12,9 10,0 - - 29 16 48 26 S 1013,9 10 0 0,0
17.04.2018 13:00:00 12,8 9,2 - - 37 20 52 28 S 1013,3 15 0 0,0
17.04.2018 12:00:00 13,5 8,5 - - 39 21 55 30 S 1012,8 10 12 0,0
17.04.2018 11:00:00 11,9 7,3 - - 41 22 57 31 S 1012,7 10 0 0,0
17.04.2018 10:00:00 11,8 6,6 7,7 8,2 35 19 52 28 S 1012,3 10 0 0,0
17.04.2018 09:00:00 11,8 6,3 - - 24 13 - - S 1011,9 10 0 0,0
17.04.2018 08:00:00 11,3 6,5 - - 28 15 46 25 S 1011,6 10 0 0,0
17.04.2018 07:00:00 11,1 7,1 - - 29 16 50 27 S 1010,9 10 0 0,0
17.04.2018 06:00:00 11,2 6,8 - - 29 16 - - SSE 1010,6 10 0 0,0
17.04.2018 05:00:00 11,1 6,4 - - 26 14 46 25 SSE 1011,1 23 0 0,0
17.04.2018 04:00:00 10,9 5,6 - - 31 17 59 32 S 1011,0 10 0 0,0
17.04.2018 03:00:00 11,0 5,0 - - 37 20 52 28 S 1011,1 26 0 0,0
17.04.2018 02:00:00 11,1 4,7 - - 34 18 54 29 S 1011,7 10 0 0,0
17.04.2018 01:00:00 10,8 4,6 - - 24 13 48 26 S 1011,1 27 - 0,0
17.04.2018 00:00:00 10,6 4,7 - - 28 15 - - SSE 1011,0 27 0 0,0
16.04.2018 23:00:00 10,6 4,8 - - 24 13 - - SSE 1012,0 10 0 0,0
16.04.2018 22:00:00 11,0 4,2 - - 21 11 - - S 1012,4 10 0 0,0
16.04.2018 21:00:00 11,4 3,8 - - 22 12 - - S 1012,4 30 0 0,0
16.04.2018 20:00:00 12,0 4,0 - - 22 12 - - S 1012,0 10 0 0,0
16.04.2018 19:00:00 12,6 2,6 - - 22 12 - - S 1011,6 30 0 0,0
16.04.2018 18:00:00 13,1 1,5 - - 29 16 - - S 1011,4 10 0 0,0
16.04.2018 17:00:00 13,5 3,1 - - 28 15 48 26 S 1011,1 10 24 0,0

tt = temperature
td = dewpoint
tt -20cm = temperature -20cm
tt -100cm = temperature -100cm
ff = wind speed
fx = gusts
dd = wind direction
ppp = reduced air pressure
vv = visibility
sd = sunshine duration
rr = precipitation

Next stations